Back to catalog

DELTA 1 DEB

AliveUNKNOWN
NORAD 7025·DEBRIS·🇺🇸 United States

Launched Nov 6, 1973 from Vandenberg Space Force Base

Loading…

Next Passes (next 24 hours)

TLE

FreshSource: Space-Track

Epoch: Sep 14, 2026, 09:34 UTC

1 07025U 73086R   26257.39884546 -.00000025  00000-0  12612-3 0  9990
2 07025 101.9128 226.5069 0463146  44.5804 123.4280 11.54280268227500

Track DELTA 1 DEB in real time with AllMySat

Download on the App Store